Regional Weather Roundup
Issued by NWS Sioux Falls, SD

Home | Current Version | Previous Version | Graphics & Text | Print | Product List | Glossary Off
Versions: 1 2 3 4 5 6 7 8 9 10 11 12 13 14 15 16 17 18 19 20 21 22 23 24 25 26 27 28 29 30 31 32 33 34 35 36 37 38 39 40 41 42 43 44 45 46 47 48 49 50

000
ASUS43 KFSD 100210
RWRFSD

WEATHER ROUNDUP FOR SE SOUTH DAKOTA/SW MINNESOTA/NW IOWA
NATIONAL WEATHER SERVICE SIOUX FALLS SD
800 PM CST FRI DEC 09 2016

NOTE: "FAIR" INDICATES FEW OR NO CLOUDS BELOW 12,000 FEET WITH NO
SIGNIFICANT WEATHER AND OR OBSTRUCTIONS TO VISIBILITY.


SDZ038>040-050-052>070-100300-
SOUTHEAST SOUTH DAKOTA

CITY           SKY/WX    TMP DP  RH WIND       PRES   REMARKS
BROOKINGS      FLURRIES   6   1  80 N6        30.47S WCI  -4
CHAMBERLAIN    CLOUDY     8   4  83 NE7       30.49S WCI  -4
HURON          FLURRIES   5   1  83 N3        30.54S
MADISON        LGT RAIN   9   7  92 NW6       30.47S WCI  -1
MITCHELL       CLOUDY     7   3  84 N12       30.53F WCI  -8
SIOUX FALLS    LGT SNOW  13  10  88 N5        30.48F FOG     WCI   5
WINNER         LGT SNOW   9   5  84 N9        30.45R FOG     WCI  -4
YANKTON        CLOUDY    14   9  79 NE5       30.48F WCI   6
$$

MNZ071-072-080-081-089-090-097-098-100300-
SOUTHWEST MINNESOTA

CITY           SKY/WX    TMP DP  RH WIND       PRES   REMARKS
FAIRMONT       LGT SNOW  14  10  84 N6        30.51R FOG     WCI   5
JACKSON        LGT SNOW  14  10  85 VRB3      30.47F
LUVERNE        LGT SNOW  12   9  85 NW3       30.49S
MARSHALL       FLURRIES   7   2  80 N10       30.52F WCI  -8
MONTEVIDEO     CLOUDY     7   0  72 N7        30.55S WCI  -5
PIPESTONE      FLURRIES  10   7  85 N3        30.45S
REDWOOD FALLS  CLOUDY     9   1  70 NW7       30.52F WCI  -2
TRACY          LGT SNOW   8   5  86 N7        30.50S WCI  -3
WINDOM         CLOUDY    10   7  85 CALM      30.48F
WORTHINGTON    LGT SNOW  13   9  84 N5        30.46F FOG     WCI   5
$$

IAZ001>003-012>014-020>022-031-032-NEZ013-014-SDZ071-100300-
NORTHWEST IOWA

CITY           SKY/WX    TMP DP  RH WIND       PRES   REMARKS
CHEROKEE       CLOUDY    17  12  80 CALM      30.50F
DENISON        CLOUDY    19  10  68 CALM      30.48F
ESTHERVILLE    CLOUDY    15  11  83 NW7       30.48S WCI   5
LE MARS        CLOUDY    18   9  68 S5        30.51F WCI  11
ORANGE CITY    CLOUDY    16  10  79 CALM      30.48F
SHELDON        LGT SNOW  14  12  92 CALM      30.47F
SIOUX CITY     FLURRIES  19  10  68 E3        30.52S
SPENCER        CLOUDY    16  10  77 W9        30.49F WCI   4
STORM LAKE     CLOUDY    16  10  79 CALM      30.48F
$$

ABBREVIATIONS USED IN REMARKS
   TC - TEMPERATURE IN CELSIUS
  WCI - WIND CHILL INDEX
   HX - HEAT INDEX
  VSB - VISIBILITY





USA.gov is the U.S. government's official web portal to all federal, state and local government web resources and services.